Tracking 30995 objects as of 5-Jul-2025
HD Live streaming from Space Station
objects crossing your sky now

TITAN 3C TRANSTAGE R/B

Track TITAN 3C TRANSTAGE R/B now!


NORAD ID: 3956
Int'l Code: 1969-046F
Perigee: 7,225.1 km
Apogee: 121,398.9 km
Inclination: 16.5 °
Period: 3,117.0 minutes
Semi major axis: 70683 km
RCS: 6.4225 m2 (large)
Launch date: May 23, 1969
Source: United States (US)
Launch site: AIR FORCE EASTERN TEST RANGE (AFETR)

Note: This is a ROCKET BODY
Your satellite tracking list
STARLINK-4489
Track 1 satellite(s)




NASA's NSSDC Master Catalog

Two Line Element Set (TLE):
1  3956U 69046F   25185.98339760 -.00001213  00000-0  00000+0 0  9991
2  3956  16.4587  32.3169 8076465 266.2258 359.8212  0.46198758 60540
Source of the keplerian elements: AFSPC